Overview Statistics Trail Chart Weather Telemetry Raw packets
 

This is the latest recevied weather packets stored in our database for station/object HB9FSE-WX. If no packets are shown the sender has not sent any weather packets the latest 10 day(s).

<< 1 2 3 4 5 6 >>
Time Temp. Humidity Pressure Rain* Wind** Luminosity Snow
1778162195 22.22° C 35% 1014.5 hPa - - - -
1778161295 22.22° C 35% 1014.8 hPa - - - -
1778160394 22.22° C 34% 1014.7 hPa - - - -
1778159493 21.67° C 35% 1014.9 hPa - - - -
1778158593 21.67° C 36% 1015 hPa - - - -
1778157693 21.67° C 36% 1015 hPa - - - -
1778155895 22.22° C 35% 1014.8 hPa - - - -
1778154995 22.22° C 36% 1014.9 hPa - - - -
1778154095 22.22° C 36% 1015 hPa - - - -
1778153195 22.78° C 36% 1015.1 hPa - - - -
1778152295 23.33° C 37% 1015.2 hPa - - - -
1778151395 22.78° C 37% 1015.2 hPa - - - -
1778150494 22.78° C 37% 1015.3 hPa - - - -
1778149594 22.78° C 37% 1015.4 hPa - - - -
1778148694 22.78° C 37% 1015.5 hPa - - - -
1778147794 22.22° C 37% 1015.4 hPa - - - -
1778146894 21.11° C 38% 1015.6 hPa - - - -
1778145994 21.11° C 38% 1015.5 hPa - - - -
1778145093 21.11° C 38% 1015.4 hPa - - - -
1778144193 21.11° C 38% 1015.3 hPa - - - -
1778143293 21.11° C 39% 1015.2 hPa - - - -
1778142393 21.67° C 37% 1015.3 hPa - - - -
1778141493 22.22° C 37% 1015.1 hPa - - - -
1778140593 23.33° C 37% 1015.1 hPa - - - -
1778139693 23.33° C 38% 1015 hPa - - - -

* Rain since midnight (hover to see other rain measurements)
** Current wind speed in m/s (hover to see current wind gust speed)